Rawlins, WY

5:49 PM MST on January 22, 2017 (GMT -0700)
Rawlins Municipal

Weather History for KRWL - December, 2012

Change the Weather History Date:

Sunday, December 23, 2012

  Actual Average Record
Temperature  
Mean Temperature 27 °F 21 °F  
Max Temperature 34 °F 30 °F 48 °F (1955)
Min Temperature 19 °F 12 °F -17 °F (1990)
Degree Days  
Heating Degree Days 38 44  
Month to date heating degree days 540 999  
Since 1 July heating degree days 2210 3105  
Cooling Degree Days 0 0  
Month to date cooling degree days 0 0  
Year to date cooling degree days 419 186  
Moisture  
Dew Point 15 °F    
Average Humidity 55    
Maximum Humidity 71    
Minimum Humidity 39    
Precipitation  
Precipitation 0.00 in 0.01 in 0.57 in (1987)
Month to date precipitation 0.11 0.31  
Year to date precipitation 4.70 9.13  
Sea Level Pressure  
Sea Level Pressure 30.00 in    
Wind  
Wind Speed 16 mph (SW)    
Max Wind Speed 32 mph    
Max Gust Speed 39 mph    
Visibility 10 miles    
Events      
T = Trace of Precipitation, MM = Missing Value Source: NWS Daily Summary

Daily Weather History Graph

Daily Weather History Graph

Search for Another Location

Airport or City:

Trip Planner

Search our weather history database for the weather conditions in past years. The results will help you decide how hot, cold, wet, or windy it might be!

Date:

Astronomy

Dec. 23, 2012 Rise Set
Actual Time 7:34 AM MST 4:42 PM MST
Civil Twilight 7:02 AM MST 5:14 PM MST
Nautical Twilight 6:27 AM MST 5:49 PM MST
Astronomical Twilight 5:53 AM MST 6:23 PM MST
Moon 1:36 PM MST 3:17 AM MST
Length of Visible Light 10h 11m
Length of Day
9h 08m
Waxing Gibbous, 82% of the Moon is Illuminated
Dec 23
Waxing Gibbous
Dec 28
Full
Jan 4
Last Quarter
Jan 11
New
Jan 18
First Quarter

Hourly Weather History & Observations

Time (MST) Temp. Windchill Dew Point Humidity Pressure Visibility Wind Dir Wind Speed Gust Speed Precip Events Conditions
12:53 AM 28.9 °F 16.5 °F 10.9 °F 47% 29.88 in 10.0 mi WSW 18.4 mph 27.6 mph N/A   Clear
1:53 AM 26.1 °F 12.0 °F 10.9 °F 53% 29.92 in 10.0 mi WSW 20.7 mph 29.9 mph N/A   Clear
2:53 AM 26.1 °F 11.3 °F 12.0 °F 55% 29.94 in 10.0 mi WSW 23.0 mph - N/A   Scattered Clouds
3:53 AM 26.1 °F 10.7 °F 10.9 °F 53% 29.95 in 10.0 mi WSW 25.3 mph 35.7 mph N/A   Partly Cloudy
4:53 AM 24.1 °F 9.8 °F 10.9 °F 57% 29.99 in 10.0 mi West 19.6 mph - N/A   Clear
5:53 AM 23.0 °F 7.6 °F 10.9 °F 60% 30.02 in 10.0 mi WSW 21.9 mph - N/A   Scattered Clouds
6:53 AM 21.9 °F 6.9 °F 12.0 °F 66% 30.02 in 10.0 mi WSW 19.6 mph - N/A   Clear
7:53 AM 23.0 °F 9.6 °F 14.0 °F 68% 30.03 in 10.0 mi WSW 16.1 mph - N/A   Mostly Cloudy
8:53 AM 27.0 °F 13.5 °F 14.0 °F 58% 30.02 in 10.0 mi WSW 19.6 mph 28.8 mph N/A   Mostly Cloudy
9:53 AM 28.0 °F 15.3 °F 16.0 °F 61% 30.06 in 10.0 mi WSW 18.4 mph 29.9 mph N/A   Scattered Clouds
10:53 AM 30.0 °F 16.9 °F 16.0 °F 56% 30.07 in 10.0 mi WSW 21.9 mph 27.6 mph N/A   Overcast
11:53 AM 28.9 °F 15.4 °F 17.1 °F 61% 30.07 in 10.0 mi WSW 21.9 mph 29.9 mph N/A   Overcast
12:53 PM 32.0 °F 20.5 °F 18.0 °F 56% 30.01 in 10.0 mi SW 18.4 mph 26.5 mph N/A   Clear
1:53 PM 34.0 °F 22.1 °F 16.0 °F 48% 30.00 in 10.0 mi West 21.9 mph 29.9 mph N/A   Scattered Clouds
2:53 PM 32.0 °F 19.2 °F 16.0 °F 52% 29.99 in 10.0 mi WSW 23.0 mph 33.4 mph N/A   Clear
3:53 PM 28.9 °F 19.8 °F 18.0 °F 64% 30.05 in 10.0 mi SSW 10.4 mph 23.0 mph N/A   Mostly Cloudy
4:53 PM 28.0 °F 16.5 °F 16.0 °F 61% 30.06 in 10.0 mi SSW 15.0 mph - N/A   Scattered Clouds
5:53 PM 24.1 °F 13.7 °F 16.0 °F 71% 30.07 in 10.0 mi SW 10.4 mph - N/A   Partly Cloudy
6:53 PM 24.1 °F 15.2 °F 16.0 °F 71% 30.05 in 10.0 mi SW 8.1 mph - N/A   Overcast
7:53 PM 24.1 °F - 15.1 °F 69% 30.05 in 10.0 mi Calm Calm - N/A   Overcast
8:53 PM 21.9 °F 13.4 °F 14.0 °F 72% 30.00 in 10.0 mi South 6.9 mph - N/A   Mostly Cloudy
9:53 PM 21.0 °F 16.2 °F 14.0 °F 74% 29.97 in 10.0 mi South 3.5 mph - N/A   Mostly Cloudy
10:53 PM 26.1 °F 16.2 °F 18.0 °F 71% 29.92 in 10.0 mi SW 10.4 mph - N/A   Clear
11:53 PM 28.0 °F 16.1 °F 19.9 °F 72% 29.87 in 10.0 mi SSW 16.1 mph - N/A   Overcast